Simultaneous Nadir Overpasses (SNOs) Predictions

Prediction of SNOs between METOP-A and NOAA-19 Satellite Orbit:

Table of predicted SNOs for the next 14.0 days since TLE Epoch: 1/18/2019
Index Date (METOP-A) Time (METOP-A) Lat,Lon (METOP-A) SZA (METOP-A ) Date (NOAA-19) Time (NOAA-19) Lat,Lon (NOAA-19) SZA (NOAA-19 ) Distance(km) Time Diff (sec)
1 01/25/2019 07:01:02 -79.54, -92.62 81.38 01/25/2019 06:59:57 -79.54, -96.69 81.47 82.33 65
2 01/25/2019 07:51:49 79.30, 72.90 98.33 01/25/2019 07:50:47 79.28, 73.02 98.32 3.06 62
3 01/25/2019 08:42:30 -79.31,-119.70 81.67 01/25/2019 08:41:49 -79.28,-119.71 81.70 3.44 41
4 01/25/2019 09:33:11 79.28, 47.40 98.29 01/25/2019 09:32:48 79.28, 47.50 98.30 2.27 23
5 01/25/2019 10:23:52 -79.29,-145.19 81.71 01/25/2019 10:23:50 -79.28,-145.22 81.72 1.05 2
6 01/25/2019 11:14:32 79.29, 22.16 98.29 01/25/2019 11:14:49 79.28, 21.99 98.28 3.62 17
7 01/25/2019 12:05:14 -79.27,-170.69 81.75 01/25/2019 12:05:51 -79.28,-170.73 81.73 1.76 37
8 01/25/2019 12:55:54 79.27, -3.34 98.25 01/25/2019 12:56:49 79.26, -3.26 98.24 2.19 55




NCC Satellite Simultaneous Nadir Overpasses (SNOs) Prediction Service
